Regional Weather Roundup
Issued by NWS Wakefield, VA

Home | Current Version | Previous Version | Graphics & Text | Print | Product List | Glossary On
Versions: 1 2 3 4 5 6 7 8 9 10 11 12 13 14 15 16 17 18 19 20 21 22 23 24 25 26 27 28 29 30 31 32 33 34 35 36 37 38 39 40 41 42 43 44 45 46 47 48 49 50
000
ASUS41 KAKQ 011715
RWRAKQ

REGIONAL WEATHER ROUNDUP
NATIONAL WEATHER SERVICE WAKEFIELD VA
100 PM EDT WED JUL 01 2015

Note: "fair" indicates few or no clouds below 12,000 feet with no
significant weather and/or obstructions to visibility. * = Denotes
station may not report precipitation (e.g., rain,snow,etc.),
thunder or fog.

VAZ042-051-052>054-056-011800-
NORTHERN VIRGINIA

CITY           SKY/WX    TMP DP  RH WIND       PRES   REMARKS
WASH NATIONAL  MOSUNNY   86  64  47 SW9       29.88S
DULLES         PTSUNNY   81  63  54 SW7G16    29.89R
FORT BELVOIR   SUNNY     82  68  62 S6        29.88S
QUANTICO       MOSUNNY   83  65  54 S8        29.89S
FREDERICKSBRG* SUNNY     86  66  52 W7        29.88F
STAFFORD*      SUNNY     81  65  58 SW6       29.93F
WARRENTON      SUNNY     83  68  60 S7        29.89S
CULPEPER*        N/A     80  64  56 S5        29.90F
MANASSAS*      SUNNY     82  64  54 SW7       29.89R
LEESBURG*      CLOUDY    81  66  61 W6        29.89S
WINCHESTER     PTSUNNY   81  63  54 S6        29.88F
FRONT ROYAL*   FAIR      79  64  61 SW7       29.88F
LURAY*         CLOUDY    81  64  57 S10       29.90F
$$

VAZ048-049-060>072-079>083-011800-
CENTRAL AND SOUTH CENTRAL VIRGINIA

CITY           SKY/WX    TMP DP  RH WIND       PRES   REMARKS
RICHMOND       PTSUNNY   85  62  46 W10       29.91S
CHESTERFIELD*  FAIR      82  57  42 W8        29.93S
PETERSBURG*    SUNNY     85  71  62 SW10      29.93S
HANOVER        SUNNY     83  64  52 W8        29.92F
TAPPAHANNOCK*  SUNNY     83  63  49 SW7       29.90F
QUINTON*       FAIR      82  66  58 SW5       29.91S
CHARLOTTSVILLE SUNNY     82  62  50 SW9G17    29.91S
GORDONSVILLE*  FAIR      81  64  57 SW8G16    29.90S
ORANGE*        SUNNY     82  64  54 S12       29.92S
LOUISA*        SUNNY     82  66  57 SW7       29.90F
BUMPASS*       FAIR      80  65  59 SW8       29.90F
FARMVILLE*     SUNNY     83  64  52 W8        29.92F
CREWE*         FAIR      83  64  53 W6        29.93F
FORT PICKETT*  FAIR      82  65  57 W6        29.94S
CHASE CITY*    FAIR      83  69  61 S3        29.95S
CLARKSVILLE*   FAIR      82  68  61 S5        29.95S
SOUTH HILL*    SUNNY     82  65  57 SW7       30.01S
LAWRENCEVILLE* NOT AVBL
EMPORIA*         N/A     81  68  65 S5        29.96S
$$

VAZ088>098-011800-
SOUTHEAST VIRGINIA

CITY           SKY/WX    TMP DP  RH WIND       PRES   REMARKS
NORFOLK        SUNNY     83  63  50 W9G17     29.91F
VIRGINIA BEACH PTSUNNY   86  67  52 SW10      29.91S
NORFOLK NAVAL  SUNNY     83  65  54 W10       29.93S
WEST POINT*    SUNNY     85  66  52 SW7       29.92S
SALUDA*        FAIR      81  69  66 SW6       29.90S
NEWPORT NEWS   SUNNY     82  68  62 W13       29.92S
LANGLEY AFB    MOSUNNY   82  69  65 SW13      29.90S
FORT EUSTIS    MOSUNNY   82  69  65 SW8       29.90
WILLIAMSBURG*  SUNNY     88  70  55 W9        29.93S
HR EXEC AP*    FAIR      82  70  65 SW9       29.94S
FRANKLIN*      SUNNY     82  67  61 SW6       29.94S
WAKEFIELD      SUNNY     84  67  56 VRB6      29.93S
$$

VAZ020-022-025-037-045-011800-
WEST CENTRAL AND SOUTHWEST VIRGINIA

CITY           SKY/WX    TMP DP  RH WIND       PRES   REMARKS
STAUNTON*      CLOUDY    80  63  54 SW9       29.94F
WAYNESBORO*    FAIR      77  63  61 SW8       29.95F
HOT SPRINGS VA PTSUNNY   69  62  80 W13       30.05R
LYNCHBURG      SUNNY     81  64  56 SW10      29.97F
DANVILLE       SUNNY     83  66  56 W8        29.96F
SOUTH BOSTON*  FAIR      82  67  58 MISG      29.95F
MARTINSVILLE   MOSUNNY   85  63  48 SW7       29.99F
ROANOKE        PTSUNNY   79  62  56 W13       29.98S
BLACKSBURG     MOSUNNY   77  64  63 W8        30.04F
DUBLIN*        MOSUNNY   78  63  59 W7        30.03F
MARION*        PTSUNNY   76  65  68 W8        30.08R
HILLSVILLE*    PTSUNNY   75  61  62 W13G18    30.05S
RICHLANDS*     FAIR      74  65  73 SW9       30.05S
WISE*          CLOUDY    73  61  64 SW9       30.06S
ABINGDON*      PTSUNNY   77  65  66 W8        30.05F
$$

MDZ021>025-VAZ099-100-011800-
SOUTHERN MARYLAND AND THE DELMARVA PENINSULA

CITY           SKY/WX    TMP DP  RH WIND       PRES   REMARKS
PATUXENT RIVER MOSUNNY   82  63  52 W7        29.88S
BAY BRIDGE APT   N/A     81  64  57 SW7       29.87S
LEONARDTOWN    SUNNY     81  63  54 W7        29.90F
DOVER          MOSUNNY   83  67  60 SW12      29.84S
GEORGETOWN     MOSUNNY   83  65  54 SW9       29.87S
EASTON         SUNNY     82  66  57 W8        29.91S
CAMBRIDGE      MOSUNNY   81  66  61 SW3       29.87S
SALISBURY      MOSUNNY   83  68  60 SW13      29.87S
OCEAN CITY     MOSUNNY   82  70  66 SW9       29.87S
WALLOPS ISLAND MOSUNNY   82  71  69 W8        29.89S
ACCOMACK*      SUNNY     82  68  61 SW8       29.90S
$$

NCZ012>017-030>032-011800-
NORTH CENTRAL AND EASTERN NORTH CAROLINA

CITY           SKY/WX    TMP DP  RH WIND       PRES   REMARKS
ROANOKE RAPIDS FAIR      81  68  65 W5        29.95F
RALEIGH        PTSUNNY   85  70  60 W7        29.97F
ELIZABETH CITY SUNNY     83  69  62 W8        29.94S
AHOSKIE*       SUNNY     81  66  61 CALM      29.96S
EDENTON*         N/A     82  70  65 SW8       29.95F
CURRITUCK*     SUNNY     84  64  50 SW10      29.94S
KILL DEVIL HLS SUNNY     88  68  52 W8        29.93S
MANTEO         SUNNY     85  68  56 W8        29.94F
CAPE HATTERAS  SUNNY     81  72  74 SW16      29.97S
TARBORO*         N/A     86  65  49 W7        29.96F
GOLDSBORO      SUNNY     82  71  68 SW5       29.95F
WASHINGTON     SUNNY     83  68  62 SW7       29.97S
GREENVILLE     SUNNY     84  68  58 CALM      29.98F
NEW BERN       SUNNY     84  72  67 SW6       29.98S
WILMINGTON     SUNNY     84  73  69 NW6       29.98F
$$

VAZ048-011800-
ELSEWHERE

CITY           SKY/WX    TMP DP  RH WIND       PRES   REMARKS
HARRISBURG PA  MOSUNNY   79  62  56 W15       29.83S
BALTIMORE      MOSUNNY   83  67  58 W10G18    29.85S
ANNAPOLIS      SUNNY     83  63  50 VRB3      29.86S
ANDREWS AFB    MOSUNNY   81  68  63 SW13      29.88R
PHILADELPHIA   MOSUNNY   83  61  47 SW13      29.83S
HENDERSON NC   MOSUNNY   82  64  54 W7        29.97S
GREENSBORO     CLOUDY    84  60  44 W8        29.97F
ROCKY MOUNT    SUNNY     86  67  52 SW7       29.96S
$$

VAZ100-011800-
MARINE

STATION/POSITION TIME  TEMP    WIND        PRES    WAVE   SWELL
                       AIR SEA DIR/SP/G            HT/PER HT/PER
                 (UTC) (F)     (DEG/KT/KT) (MB)    (FT/S) (FT/S)
BRANDYWINE LGT   1600   75 73  230/  7/  8 1011.3F
CAPE MAY NJ      1600   77 77  240/  6/  7 1010.9S
LEWES DE         1600   79 70  300/  7/  9 1011.1R
15NM E FENWICK I 1650   74 73              1011.5R   3/ 7
OCEAN-CITY-INLET 1600   78 72  230/  8/ 10 1011.3R
WACHAPREAGUE VA  1600   81 80  240/  5/  9 1012.5R
THOMAS POINT MD  1600   75                 1011.9R
GOOSES REEF MD   1700   78 79  180/  8/ 10 1012.8S
COVE POINT MD    1600   75     170/ 10/ 12 1012.7R
SOLOMONS ISLAND  1600      79                N/A
BISHOPS HEAD MD  1600   75     250/  9/ 10 1012.1R
PINEY POINT MD   1600          100/  2/  2   N/A
CAMBRIDGE MD     1600   80 79  230/  8/ 13 1011.6R
LEWISETTA VA     1600   80 80  240/  4/  6 1011.8R
RAPPAHANNOCK LGT 1600          220/  9/ 10 1013.1R
STINGRAY PT      1700   79 81  240/  8/  8 1012.7R   1
YORK RVR RNG VA  1600   78     280/  8/  9 1012.3R
YORKTOWN VA      1600   78 80  250/  9/ 11 1012.6R
JAMESTOWN VA     1700   80 83  240/  6/ 10   N/A
DOMINION TERM VA 1600   78     250/  9/ 10 1012.9R
KIPTOPEKE VA     1600      82  260/  9/ 11   N/A
CHES BAY BRIDGE  1600   78 77  260/ 10/ 11 1012.7R
CAPE HENRY VA    1600   80     290/  8/ 12 1011.4R
CHESAPEAKE LGHT  1600   77     220/ 10/ 10 1013.7R
WILLOUBY STN VA  1600   77     230/ 13/ 14 1013.9R
CAPE HENRY BUOY  1628      77                N/A     3/ 9
1ST LANDING BUOY 1700      78              1012.8S   1/ 3
CAPE CHARLES BUO 1626      74                N/A     3/ 9   2/ 9
OFFSHORE WE BUOY 1611      78                N/A     4/ 8   3/ 8
64NM E OF VA BCH 1650   77 77  240/ 16/ 17 1013.0S   5/ 8   3/ 8
DUCK PIER NC     1600   79 58  250/ 11/ 15 1013.0R
44100 DUCK FRF   1624      77                N/A     3/ 8
44056 DUCK FRF   1611      70                N/A     2/ 8
OREGON INLET NC  1600   81 82  210/ 12/ 14 1013.9R
HATTERAS NC      1600   80 81  220/ 10/ 14 1014.7R
DIAMOND SHLS NC  1650   80 83  240/ 19/ 21 1014.5F   5/ 6   3/ 8
CAPE LOOKOUT NC  1700   81     230/ 13/ 16 1014.9F
$$


USA.gov is the U.S. government's official web portal to all federal, state and local government web resources and services.